| time (UTC) | temp C | wind direction | speed KPH | gust KPH | rain 1hr cm | rain 24hr cm | rain mn cm | humidity % | barometer mb |
| 20260831150514 | 25 | 23 | 17.7 | 32.2 | 0.00 | 0.00 | 0.00 | 50 | 1019.3 |
| 20260831150022 | 25 | 348 | 17.7 | 32.2 | 0.00 | 0.00 | 0.00 | 50 | 1019.3 |
| 20260831145610 | 25 | 343 | 8.0 | 22.5 | 0.00 | 0.00 | 0.00 | 50 | 1019.3 |
| 20260831145026 | 25 | 27 | 9.7 | 27.4 | 0.00 | 0.00 | 0.00 | 50 | 1019.3 |
| 20260831144036 | 25 | 1 | 14.5 | 30.6 | 0.00 | 0.00 | 0.00 | 51 | 1019.4 |
| 20260831143519 | 25 | 343 | 19.3 | 29.0 | 0.00 | 0.00 | 0.00 | 51 | 1019.4 |
| 20260831143033 | 25 | 11 | 11.3 | 35.4 | 0.00 | 0.00 | 0.00 | 51 | 1019.5 |
| 20260831142519 | 25 | 190 | 22.5 | 41.8 | 0.00 | 0.00 | 0.00 | 50 | 1019.5 |
| 20260831142047 | 25 | 328 | 24.1 | 33.8 | 0.00 | 0.00 | 0.00 | 51 | 1019.5 |
| 20260831141515 | 25 | 346 | 17.7 | 29.0 | 0.00 | 0.00 | 0.00 | 51 | 1019.6 |
| 20260831141015 | 25 | 32 | 14.5 | 29.0 | 0.00 | 0.00 | 0.00 | 50 | 1019.7 |
| 20260831140524 | 25 | 349 | 17.7 | 33.8 | 0.00 | 0.00 | 0.00 | 50 | 1019.6 |
| 20260831140011 | 25 | 342 | 16.1 | 32.2 | 0.00 | 0.00 | 0.00 | 50 | 1019.6 |
| 20260831135046 | 25 | 338 | 14.5 | 35.4 | 0.00 | 0.00 | 0.00 | 50 | 1019.6 |
| 20260831134554 | 25 | 326 | 22.5 | 35.4 | 0.00 | 0.00 | 0.00 | 51 | 1019.7 |
| 20260831133522 | 25 | 8 | 19.3 | 37.0 | 0.00 | 0.00 | 0.00 | 49 | 1019.7 |
| 20260831133043 | 25 | 331 | 22.5 | 37.0 | 0.00 | 0.00 | 0.00 | 51 | 1019.8 |
| 20260831132511 | 25 | 289 | 12.9 | 32.2 | 0.00 | 0.00 | 0.00 | 52 | 1019.9 |
| 20260831132018 | 25 | 154 | 14.5 | 35.4 | 0.00 | 0.00 | 0.00 | 53 | 1019.8 |
| 20260831131015 | 25 | 354 | 14.5 | 35.4 | 0.00 | 0.00 | 0.00 | 54 | 1019.8 |
| 20260831130544 | 25 | 190 | 24.1 | 35.4 | 0.00 | 0.00 | 0.00 | 54 | 1019.9 |
| 20260831130030 | 25 | 336 | 19.3 | 30.6 | 0.00 | 0.00 | 0.00 | 54 | 1019.9 |
| 20260831125538 | 25 | 351 | 11.3 | 33.8 | 0.00 | 0.00 | 0.00 | 54 | 1019.9 |
| 20260831125023 | 25 | 33 | 12.9 | 33.8 | 0.00 | 0.00 | 0.00 | 54 | 1020.0 |
| 20260831124047 | 25 | 331 | 12.9 | 33.8 | 0.00 | 0.00 | 0.00 | 56 | 1020.2 |
| 20260831123535 | 25 | 327 | 11.3 | 29.0 | 0.00 | 0.00 | 0.00 | 57 | 1020.1 |
| 20260831123012 | 24 | 30 | 16.1 | 29.0 | 0.00 | 0.00 | 0.00 | 57 | 1020.2 |
| 20260831122534 | 25 | 299 | 14.5 | 29.0 | 0.00 | 0.00 | 0.00 | 55 | 1020.2 |
| 20260831122014 | 24 | 48 | 16.1 | 29.0 | 0.00 | 0.00 | 0.00 | 54 | 1020.2 |
| 20260831121522 | 24 | 13 | 11.3 | 27.4 | 0.00 | 0.00 | 0.00 | 56 | 1020.3 |
| 20260831121027 | 24 | 310 | 14.5 | 33.8 | 0.00 | 0.00 | 0.00 | 54 | 1020.3 |
| 20260831120035 | 24 | 354 | 9.7 | 33.8 | 0.00 | 0.00 | 0.00 | 57 | 1020.3 |
| 20260831115522 | 24 | 348 | 19.3 | 33.8 | 0.00 | 0.00 | 0.00 | 57 | 1020.4 |
| 20260831115015 | 23 | 294 | 14.5 | 30.6 | 0.00 | 0.00 | 0.00 | 58 | 1020.3 |
| 20260831114032 | 24 | 190 | 14.5 | 27.4 | 0.00 | 0.00 | 0.00 | 57 | 1020.4 |
| 20260831113514 | 23 | 190 | 11.3 | 32.2 | 0.00 | 0.00 | 0.00 | 59 | 1020.5 |
| 20260831113042 | 23 | 330 | 16.1 | 32.2 | 0.00 | 0.00 | 0.00 | 59 | 1020.5 |
| 20260831112524 | 23 | 190 | 9.7 | 20.9 | 0.00 | 0.00 | 0.00 | 61 | 1020.5 |
| 20260831112019 | 23 | 190 | 11.3 | 27.4 | 0.00 | 0.00 | 0.00 | 61 | 1020.6 |
| 20260831111546 | 23 | 356 | 20.9 | 27.4 | 0.00 | 0.00 | 0.00 | 61 | 1020.6 |
| 20260831111032 | 23 | 345 | 4.8 | 20.9 | 0.00 | 0.00 | 0.00 | 62 | 1020.7 |
| 20260831110511 | 23 | 1 | 6.4 | 16.1 | 0.00 | 0.00 | 0.00 | 60 | 1020.7 |
| 20260831110020 | 23 | 25 | 8.0 | 16.1 | 0.00 | 0.00 | 0.00 | 61 | 1020.7 |
| 20260831105523 | 23 | 1 | 8.0 | 19.3 | 0.00 | 0.00 | 0.00 | 64 | 1020.8 |
| 20260831105011 | 23 | 8 | 8.0 | 19.3 | 0.00 | 0.00 | 0.00 | 63 | 1020.8 |
| 20260831104512 | 23 | 335 | 4.8 | 16.1 | 0.00 | 0.00 | 0.00 | 62 | 1020.8 |
| 20260831104107 | 23 | 356 | 8.0 | 19.3 | 0.00 | 0.00 | 0.00 | 62 | 1020.8 |
| 20260831103537 | 23 | 13 | 6.4 | 22.5 | 0.00 | 0.00 | 0.00 | 60 | 1020.8 |
| 20260831103017 | 22 | 190 | 6.4 | 32.2 | 0.00 | 0.00 | 0.00 | 62 | 1020.9 |
| 20260831102514 | 22 | 190 | 14.5 | 32.2 | 0.00 | 0.00 | 0.00 | 60 | 1020.9 |
| 20260831102029 | 22 | 190 | 11.3 | 25.7 | 0.00 | 0.00 | 0.00 | 62 | 1020.9 |
| 20260831101537 | 22 | 190 | 17.7 | 27.4 | 0.00 | 0.00 | 0.00 | 61 | 1020.9 |
| 20260831101015 | 22 | 190 | 9.7 | 20.9 | 0.00 | 0.00 | 0.00 | 62 | 1021.0 |
| 20260831100512 | 22 | 190 | 8.0 | 20.9 | 0.00 | 0.00 | 0.00 | 64 | 1020.9 |
| 20260831100020 | 22 | 353 | 11.3 | 37.0 | 0.00 | 0.00 | 0.00 | 64 | 1020.8 |
| 20260831095529 | 22 | 15 | 22.5 | 37.0 | 0.00 | 0.00 | 0.00 | 64 | 1020.8 |
| 20260831095029 | 22 | 190 | 16.1 | 29.0 | 0.00 | 0.00 | 0.00 | 65 | 1020.8 |
| 20260831094517 | 21 | 190 | 16.1 | 29.0 | 0.00 | 0.00 | 0.00 | 69 | 1020.9 |
| 20260831094017 | 21 | 190 | 6.4 | 20.9 | 0.00 | 0.00 | 0.00 | 71 | 1020.9 |
| 20260831093512 | 21 | 190 | 9.7 | 27.4 | 0.00 | 0.00 | 0.00 | 71 | 1020.9 |
| 20260831092528 | 21 | 190 | 11.3 | 29.0 | 0.00 | 0.00 | 0.00 | 71 | 1020.7 |
| 20260831092034 | 21 | 190 | 9.7 | 30.6 | 0.00 | 0.00 | 0.00 | 72 | 1020.8 |
| 20260831091536 | 21 | 190 | 14.5 | 29.0 | 0.00 | 0.00 | 0.00 | 72 | 1020.8 |
| 20260831091016 | 20 | 18 | 11.3 | 24.1 | 0.00 | 0.00 | 0.00 | 72 | 1020.8 |
| 20260831090526 | 20 | 190 | 11.3 | 24.1 | 0.00 | 0.00 | 0.00 | 72 | 1020.7 |
| 20260831090034 | 20 | 190 | 9.7 | 22.5 | 0.00 | 0.00 | 0.00 | 73 | 1020.7 |
| 20260831085535 | 20 | 190 | 9.7 | 29.0 | 0.00 | 0.00 | 0.00 | 74 | 1020.7 |
| 20260831085043 | 20 | 8 | 16.1 | 27.4 | 0.00 | 0.00 | 0.00 | 74 | 1020.7 |
| 20260831084524 | 20 | 190 | 9.7 | 29.0 | 0.00 | 0.00 | 0.00 | 74 | 1020.6 |
| 20260831084012 | 20 | 18 | 14.5 | 29.0 | 0.00 | 0.00 | 0.00 | 74 | 1020.7 |
| 20260831083521 | 20 | 190 | 12.9 | 27.4 | 0.00 | 0.00 | 0.00 | 75 | 1020.7 |
| 20260831083022 | 20 | 190 | 6.4 | 20.9 | 0.00 | 0.00 | 0.00 | 76 | 1020.8 |
| 20260831082523 | 20 | 190 | 11.3 | 20.9 | 0.00 | 0.00 | 0.00 | 76 | 1020.8 |
| 20260831082018 | 19 | 190 | 8.0 | 25.7 | 0.00 | 0.00 | 0.00 | 77 | 1020.8 |
| 20260831081512 | 19 | 190 | 11.3 | 27.4 | 0.00 | 0.00 | 0.00 | 77 | 1020.8 |
| 20260831081035 | 19 | 190 | 11.3 | 27.4 | 0.00 | 0.00 | 0.00 | 77 | 1020.8 |
| 20260831080514 | 19 | 190 | 19.3 | 27.4 | 0.00 | 0.00 | 0.00 | 77 | 1020.7 |
| 20260831080049 | 19 | 190 | 11.3 | 25.7 | 0.00 | 0.00 | 0.00 | 78 | 1020.6 |
| 20260831075532 | 19 | 190 | 11.3 | 25.7 | 0.00 | 0.00 | 0.00 | 78 | 1020.5 |
| 20260831075013 | 18 | 190 | 11.3 | 22.5 | 0.00 | 0.00 | 0.00 | 79 | 1020.5 |
| 20260831074521 | 18 | 190 | 8.0 | 24.1 | 0.00 | 0.00 | 0.00 | 79 | 1020.6 |
| 20260831074023 | 18 | 78 | 9.7 | 24.1 | 0.00 | 0.00 | 0.00 | 79 | 1020.5 |
| 20260831073513 | 18 | 190 | 12.9 | 24.1 | 0.00 | 0.00 | 0.00 | 80 | 1020.4 |
| 20260831073041 | 18 | 190 | 8.0 | 24.1 | 0.00 | 0.00 | 0.00 | 80 | 1020.3 |
| 20260831072521 | 18 | 190 | 9.7 | 24.1 | 0.00 | 0.00 | 0.00 | 80 | 1020.4 |
| 20260831072015 | 18 | 190 | 11.3 | 20.9 | 0.00 | 0.00 | 0.00 | 80 | 1020.4 |
| 20260831071518 | 18 | 190 | 8.0 | 20.9 | 0.00 | 0.00 | 0.00 | 81 | 1020.2 |
| 20260831071017 | 18 | 190 | 6.4 | 19.3 | 0.00 | 0.00 | 0.00 | 81 | 1020.2 |
| 20260831070532 | 18 | 28 | 11.3 | 20.9 | 0.00 | 0.00 | 0.00 | 81 | 1020.2 |
| 20260831070013 | 18 | 43 | 11.3 | 19.3 | 0.00 | 0.00 | 0.00 | 81 | 1020.2 |
| 20260831065540 | 18 | 39 | 9.7 | 22.5 | 0.00 | 0.00 | 0.00 | 81 | 1020.2 |
| 20260831065020 | 18 | 355 | 14.5 | 22.5 | 0.00 | 0.00 | 0.00 | 81 | 1020.1 |
| 20260831064547 | 18 | 352 | 9.7 | 29.0 | 0.00 | 0.00 | 0.00 | 82 | 1020.1 |
| 20260831064013 | 17 | 360 | 17.7 | 29.0 | 0.00 | 0.00 | 0.00 | 82 | 1020.1 |
| 20260831063521 | 17 | 23 | 3.2 | 24.1 | 0.00 | 0.00 | 0.00 | 82 | 1020.0 |
| 20260831063029 | 17 | 32 | 4.8 | 25.7 | 0.00 | 0.00 | 0.00 | 82 | 1020.0 |
| 20260831062526 | 17 | 59 | 9.7 | 25.7 | 0.00 | 0.00 | 0.00 | 82 | 1020.0 |
| 20260831062019 | 17 | 351 | 9.7 | 29.0 | 0.00 | 0.00 | 0.00 | 82 | 1019.9 |
| 20260831061546 | 17 | 87 | 8.0 | 20.9 | 0.00 | 0.00 | 0.00 | 83 | 1019.9 |
| 20260831060538 | 17 | 22 | 9.7 | 22.5 | 0.00 | 0.00 | 0.00 | 83 | 1019.8 |
| 20260831060015 | 17 | 22 | 12.9 | 22.5 | 0.00 | 0.00 | 0.00 | 83 | 1019.8 |
| 20260831055520 | 17 | 11 | 8.0 | 24.1 | 0.00 | 0.00 | 0.00 | 83 | 1019.9 |
| 20260831055023 | 17 | 309 | 6.4 | 24.1 | 0.00 | 0.00 | 0.00 | 83 | 1019.9 |
| 20260831054524 | 17 | 359 | 12.9 | 19.3 | 0.00 | 0.00 | 0.00 | 83 | 1019.9 |
| 20260831054029 | 17 | 357 | 12.9 | 19.3 | 0.00 | 0.00 | 0.00 | 83 | 1019.9 |
| 20260831052028 | 17 | 334 | 6.4 | 16.1 | 0.00 | 0.00 | 0.00 | 83 | 1019.9 |
| 20260831051515 | 17 | 355 | 6.4 | 19.3 | 0.00 | 0.00 | 0.00 | 83 | 1019.8 |
| 20260831051042 | 17 | 307 | 4.8 | 20.9 | 0.00 | 0.00 | 0.00 | 83 | 1019.9 |
| 20260831050530 | 17 | 17 | 9.7 | 20.9 | 0.00 | 0.00 | 0.00 | 83 | 1019.9 |
| 20260831050037 | 17 | 360 | 8.0 | 19.3 | 0.00 | 0.00 | 0.00 | 83 | 1020.0 |
| 20260831045511 | 17 | 354 | 9.7 | 19.3 | 0.00 | 0.00 | 0.00 | 82 | 1020.0 |
| 20260831045026 | 17 | 326 | 8.0 | 24.1 | 0.00 | 0.00 | 0.00 | 82 | 1020.0 |
| 20260831044513 | 17 | 351 | 11.3 | 24.1 | 0.00 | 0.00 | 0.00 | 82 | 1020.0 |
| 20260831044014 | 17 | 347 | 8.0 | 22.5 | 0.00 | 0.00 | 0.00 | 82 | 1019.9 |
| 20260831043550 | 17 | 338 | 11.3 | 20.9 | 0.00 | 0.00 | 0.00 | 82 | 1019.9 |
| 20260831043051 | 17 | 74 | 8.0 | 19.3 | 0.00 | 0.00 | 0.00 | 82 | 1020.1 |
| 20260831042531 | 17 | 345 | 3.2 | 19.3 | 0.00 | 0.00 | 0.00 | 82 | 1020.1 |
| 20260831042058 | 17 | 301 | 6.4 | 19.3 | 0.00 | 0.00 | 0.00 | 82 | 1020.1 |
| 20260831041021 | 17 | 338 | 4.8 | 17.7 | 0.00 | 0.00 | 0.00 | 83 | 1020.1 |
| 20260831040529 | 17 | 286 | 8.0 | 19.3 | 0.00 | 0.00 | 0.00 | 83 | 1020.1 |
| 20260831040036 | 17 | 316 | 9.7 | 17.7 | 0.00 | 0.00 | 0.00 | 82 | 1020.1 |
| 20260831035536 | 17 | 323 | 8.0 | 16.1 | 0.00 | 0.00 | 0.00 | 83 | 1020.2 |
| 20260831035015 | 17 | 15 | 6.4 | 12.9 | 0.00 | 0.00 | 0.00 | 83 | 1020.3 |
| 20260831034029 | 17 | 360 | 4.8 | 16.1 | 0.00 | 0.00 | 0.00 | 83 | 1020.3 |
| 20260831033516 | 17 | 296 | 3.2 | 16.1 | 0.00 | 0.00 | 0.00 | 83 | 1020.2 |
| 20260831033024 | 17 | 347 | 8.0 | 16.1 | 0.00 | 0.00 | 0.00 | 83 | 1020.3 |
| 20260831032545 | 17 | 268 | 6.4 | 17.7 | 0.00 | 0.00 | 0.00 | 83 | 1020.3 |
| 20260831032012 | 18 | 355 | 4.8 | 20.9 | 0.00 | 0.00 | 0.00 | 83 | 1020.3 |
| 20260831031521 | 18 | 334 | 6.4 | 20.9 | 0.00 | 0.00 | 0.00 | 83 | 1020.3 |
| 20260831031047 | 18 | 348 | 4.8 | 17.7 | 0.00 | 0.00 | 0.00 | 83 | 1020.3 |
| 20260831030515 | 18 | 254 | 3.2 | 16.1 | 0.00 | 0.00 | 0.00 | 83 | 1020.3 |
| 20260831030023 | 18 | 315 | 1.6 | 16.1 | 0.00 | 0.00 | 0.00 | 83 | 1020.4 |
| 20260831025543 | 18 | 14 | 8.0 | 14.5 | 0.00 | 0.00 | 0.00 | 82 | 1020.3 |
| 20260831025026 | 18 | 329 | 4.8 | 16.1 | 0.00 | 0.00 | 0.00 | 82 | 1020.3 |
| 20260831024534 | 18 | 45 | 3.2 | 11.3 | 0.00 | 0.00 | 0.00 | 82 | 1020.3 |
| 20260831024016 | 18 | 34 | 3.2 | 14.5 | 0.00 | 0.00 | 0.00 | 82 | 1020.4 |
| 20260831023524 | 18 | 33 | 4.8 | 19.3 | 0.00 | 0.00 | 0.00 | 82 | 1020.4 |
| 20260831023012 | 18 | 12 | 11.3 | 19.3 | 0.00 | 0.00 | 0.00 | 82 | 1020.4 |
| 20260831022519 | 18 | 1 | 8.0 | 17.7 | 0.00 | 0.00 | 0.00 | 82 | 1020.4 |
| 20260831022025 | 18 | 64 | 8.0 | 20.9 | 0.00 | 0.00 | 0.00 | 82 | 1020.4 |
| 20260831021514 | 18 | 12 | 8.0 | 20.9 | 0.00 | 0.00 | 0.00 | 82 | 1020.3 |
| 20260831021013 | 18 | 320 | 9.7 | 20.9 | 0.00 | 0.00 | 0.00 | 82 | 1020.3 |
| 20260831020522 | 18 | 25 | 8.0 | 20.9 | 0.00 | 0.00 | 0.00 | 82 | 1020.4 |
| 20260831020011 | 18 | 333 | 8.0 | 19.3 | 0.00 | 0.00 | 0.00 | 82 | 1020.3 |
| 20260831015512 | 18 | 20 | 6.4 | 19.3 | 0.00 | 0.00 | 0.00 | 82 | 1020.3 |
| 20260831015040 | 18 | 319 | 8.0 | 20.9 | 0.00 | 0.00 | 0.00 | 82 | 1020.3 |
| 20260831014524 | 18 | 326 | 11.3 | 22.5 | 0.00 | 0.00 | 0.00 | 82 | 1020.4 |
| 20260831014011 | 18 | 313 | 12.9 | 22.5 | 0.00 | 0.00 | 0.00 | 82 | 1020.4 |
| 20260831013515 | 18 | 317 | 9.7 | 17.7 | 0.00 | 0.00 | 0.00 | 82 | 1020.4 |
| 20260831013022 | 18 | 332 | 9.7 | 20.9 | 0.00 | 0.00 | 0.00 | 82 | 1020.5 |
| 20260831012523 | 18 | 286 | 9.7 | 20.9 | 0.00 | 0.00 | 0.00 | 82 | 1020.6 |
| 20260831012029 | 18 | 335 | 8.0 | 19.3 | 0.00 | 0.00 | 0.00 | 82 | 1020.7 |
| 20260831011536 | 18 | 326 | 8.0 | 14.5 | 0.00 | 0.00 | 0.00 | 81 | 1020.7 |
| 20260831011016 | 18 | 13 | 6.4 | 17.7 | 0.00 | 0.00 | 0.00 | 81 | 1020.6 |
| 20260831010525 | 18 | 336 | 4.8 | 17.7 | 0.00 | 0.00 | 0.00 | 81 | 1020.7 |
| 20260831010031 | 18 | 330 | 8.0 | 16.1 | 0.00 | 0.00 | 0.00 | 82 | 1020.7 |
| 20260831005511 | 18 | 286 | 4.8 | 17.7 | 0.00 | 0.00 | 0.00 | 82 | 1020.6 |
| 20260831005014 | 18 | 53 | 8.0 | 22.5 | 0.00 | 0.00 | 0.00 | 82 | 1020.6 |
| 20260831004530 | 18 | 328 | 12.9 | 22.5 | 0.00 | 0.00 | 0.00 | 82 | 1020.7 |
| 20260831004037 | 18 | 297 | 8.0 | 22.5 | 0.00 | 0.00 | 0.00 | 82 | 1020.7 |
| 20260831003517 | 18 | 341 | 9.7 | 22.5 | 0.00 | 0.00 | 0.00 | 82 | 1020.7 |
| 20260831003025 | 18 | 325 | 8.0 | 19.3 | 0.00 | 0.00 | 0.00 | 82 | 1020.7 |
| 20260831002526 | 18 | 338 | 11.3 | 22.5 | 0.00 | 0.00 | 0.00 | 82 | 1020.7 |
| 20260831002034 | 18 | 346 | 11.3 | 22.5 | 0.00 | 0.00 | 0.00 | 82 | 1020.8 |
| 20260831001520 | 18 | 331 | 8.0 | 16.1 | 0.00 | 0.00 | 0.00 | 82 | 1020.8 |
| 20260831001020 | 18 | 327 | 8.0 | 25.7 | 0.00 | 0.00 | 0.00 | 81 | 1020.8 |
| 20260831000529 | 18 | 324 | 6.4 | 22.5 | 0.00 | 0.00 | 0.00 | 81 | 1020.7 |
| 20260831000018 | 18 | 318 | 8.0 | 22.5 | 0.00 | 0.00 | 0.00 | 81 | 1020.7 |
| 20260830235526 | 18 | 307 | 9.7 | 25.7 | 0.00 | 0.00 | 0.00 | 81 | 1020.7 |
| 20260830234026 | 18 | 333 | 9.7 | 24.1 | 0.00 | 0.00 | 0.00 | 81 | 1020.8 |
| 20260830233514 | 18 | 323 | 9.7 | 27.4 | 0.00 | 0.00 | 0.00 | 81 | 1020.9 |
| 20260830233030 | 18 | 25 | 16.1 | 27.4 | 0.00 | 0.00 | 0.00 | 81 | 1020.9 |
| 20260830232531 | 18 | 83 | 12.9 | 20.9 | 0.00 | 0.00 | 0.00 | 81 | 1020.8 |
| 20260830232019 | 18 | 27 | 9.7 | 25.7 | 0.00 | 0.00 | 0.00 | 81 | 1020.9 |
| 20260830231528 | 18 | 290 | 12.9 | 27.4 | 0.00 | 0.00 | 0.00 | 81 | 1020.8 |
| 20260830231034 | 18 | 22 | 12.9 | 27.4 | 0.00 | 0.00 | 0.00 | 81 | 1020.8 |
| 20260830230517 | 18 | 32 | 9.7 | 24.1 | 0.00 | 0.00 | 0.00 | 81 | 1020.7 |
| 20260830230114 | 18 | 353 | 12.9 | 30.6 | 0.00 | 0.00 | 0.00 | 81 | 1020.8 |
| 20260830225528 | 18 | 54 | 14.5 | 30.6 | 0.00 | 0.00 | 0.00 | 81 | 1020.7 |
| 20260830225140 | 18 | 45 | 11.3 | 24.1 | 0.00 | 0.00 | 0.00 | 81 | 1020.7 |
| 20260830224556 | 19 | 104 | 8.0 | 19.3 | 0.00 | 0.00 | 0.00 | 81 | 1020.7 |
| 20260830224035 | 19 | 57 | 6.4 | 24.1 | 0.00 | 0.00 | 0.00 | 81 | 1020.8 |
| 20260830223522 | 19 | 351 | 9.7 | 24.1 | 0.00 | 0.00 | 0.00 | 81 | 1020.7 |
| 20260830223012 | 19 | 7 | 8.0 | 22.5 | 0.00 | 0.00 | 0.00 | 81 | 1020.7 |
| 20260830222533 | 19 | 57 | 9.7 | 24.1 | 0.00 | 0.00 | 0.00 | 81 | 1020.6 |
| 20260830222015 | 19 | 318 | 16.1 | 24.1 | 0.00 | 0.00 | 0.00 | 81 | 1020.6 |
| 20260830221523 | 19 | 13 | 11.3 | 19.3 | 0.00 | 0.00 | 0.00 | 81 | 1020.6 |
| 20260830221024 | 19 | 328 | 9.7 | 25.7 | 0.00 | 0.00 | 0.00 | 81 | 1020.6 |
| 20260830220529 | 19 | 10 | 8.0 | 27.4 | 0.00 | 0.00 | 0.00 | 81 | 1020.5 |
| 20260830220045 | 19 | 353 | 14.5 | 27.4 | 0.00 | 0.00 | 0.00 | 81 | 1020.5 |
| 20260830215525 | 19 | 30 | 11.3 | 22.5 | 0.00 | 0.00 | 0.00 | 81 | 1020.5 |
| 20260830214607 | 19 | 332 | 11.3 | 19.3 | 0.00 | 0.00 | 0.00 | 80 | 1020.4 |
| 20260830214024 | 19 | 328 | 11.3 | 17.7 | 0.00 | 0.00 | 0.00 | 80 | 1020.5 |
| 20260830213530 | 19 | 18 | 8.0 | 20.9 | 0.00 | 0.00 | 0.00 | 80 | 1020.5 |
| 20260830213017 | 20 | 358 | 8.0 | 20.9 | 0.00 | 0.00 | 0.00 | 80 | 1020.4 |
| 20260830212541 | 20 | 1 | 9.7 | 20.9 | 0.00 | 0.00 | 0.00 | 80 | 1020.4 |
| 20260830212027 | 20 | 31 | 9.7 | 20.9 | 0.00 | 0.00 | 0.00 | 79 | 1020.4 |
| 20260830211532 | 20 | 357 | 4.8 | 25.7 | 0.00 | 0.00 | 0.00 | 79 | 1020.2 |
| 20260830211025 | 20 | 330 | 11.3 | 25.7 | 0.00 | 0.00 | 0.00 | 79 | 1020.3 |
| 20260830210534 | 20 | 355 | 12.9 | 24.1 | 0.00 | 0.00 | 0.00 | 79 | 1020.3 |
| 20260830210035 | 20 | 354 | 8.0 | 22.5 | 0.00 | 0.00 | 0.00 | 78 | 1020.2 |
| 20260830205540 | 20 | 349 | 6.4 | 20.9 | 0.00 | 0.00 | 0.00 | 78 | 1020.2 |
| 20260830205024 | 20 | 87 | 6.4 | 20.9 | 0.00 | 0.00 | 0.00 | 78 | 1020.1 |
| 20260830204530 | 20 | 84 | 9.7 | 19.3 | 0.00 | 0.00 | 0.00 | 78 | 1020.1 |
| 20260830204011 | 20 | 306 | 6.4 | 22.5 | 0.00 | 0.00 | 0.00 | 78 | 1020.0 |
| 20260830203514 | 20 | 3 | 8.0 | 22.5 | 0.00 | 0.00 | 0.00 | 77 | 1020.0 |
| 20260830203023 | 20 | 344 | 14.5 | 24.1 | 0.00 | 0.00 | 0.00 | 77 | 1019.9 |
| 20260830202522 | 20 | 12 | 16.1 | 29.0 | 0.00 | 0.00 | 0.00 | 77 | 1019.9 |
| 20260830202035 | 20 | 309 | 17.7 | 29.0 | 0.00 | 0.00 | 0.00 | 76 | 1019.9 |
| 20260830201523 | 21 | 49 | 9.7 | 24.1 | 0.00 | 0.00 | 0.00 | 76 | 1019.8 |
| 20260830201036 | 21 | 82 | 12.9 | 25.7 | 0.00 | 0.00 | 0.00 | 75 | 1019.7 |
| 20260830200523 | 21 | 22 | 14.5 | 25.7 | 0.00 | 0.00 | 0.00 | 75 | 1019.6 |
| 20260830200037 | 21 | 347 | 14.5 | 25.7 | 0.00 | 0.00 | 0.00 | 75 | 1019.6 |
| 20260830195537 | 21 | 4 | 11.3 | 22.5 | 0.00 | 0.00 | 0.00 | 74 | 1019.6 |
| 20260830195017 | 21 | 305 | 11.3 | 22.5 | 0.00 | 0.00 | 0.00 | 74 | 1019.5 |
| 20260830194037 | 21 | 343 | 16.1 | 27.4 | 0.00 | 0.00 | 0.00 | 74 | 1019.4 |
| 20260830193516 | 21 | 330 | 12.9 | 24.1 | 0.00 | 0.00 | 0.00 | 73 | 1019.3 |
| 20260830193024 | 22 | 357 | 8.0 | 24.1 | 0.00 | 0.00 | 0.00 | 73 | 1019.3 |
| 20260830192542 | 22 | 341 | 11.3 | 20.9 | 0.00 | 0.00 | 0.00 | 73 | 1019.3 |
| 20260830192116 | 22 | 190 | 11.3 | 22.5 | 0.00 | 0.00 | 0.00 | 72 | 1019.2 |
| 20260830191538 | 22 | 190 | 12.9 | 22.5 | 0.00 | 0.00 | 0.00 | 72 | 1019.2 |
| 20260830191011 | 22 | 190 | 12.9 | 30.6 | 0.00 | 0.00 | 0.00 | 71 | 1019.2 |
| 20260830190540 | 22 | 190 | 12.9 | 30.6 | 0.00 | 0.00 | 0.00 | 71 | 1019.1 |
| 20260830190034 | 22 | 190 | 19.3 | 27.4 | 0.00 | 0.00 | 0.00 | 70 | 1019.2 |
| 20260830185535 | 23 | 190 | 19.3 | 27.4 | 0.00 | 0.00 | 0.00 | 70 | 1019.1 |
| 20260830185022 | 23 | 357 | 14.5 | 22.5 | 0.00 | 0.00 | 0.00 | 69 | 1019.1 |
| 20260830184524 | 23 | 5 | 11.3 | 20.9 | 0.00 | 0.00 | 0.00 | 69 | 1019.1 |
| 20260830184032 | 23 | 356 | 8.0 | 22.5 | 0.00 | 0.00 | 0.00 | 69 | 1019.1 |
| 20260830183513 | 23 | 336 | 11.3 | 25.7 | 0.00 | 0.00 | 0.00 | 69 | 1019.1 |
| 20260830183022 | 23 | 343 | 14.5 | 27.4 | 0.00 | 0.00 | 0.00 | 69 | 1019.1 |
| 20260830182530 | 23 | 190 | 19.3 | 29.0 | 0.00 | 0.00 | 0.00 | 69 | 1019.2 |
| 20260830182038 | 23 | 190 | 19.3 | 29.0 | 0.00 | 0.00 | 0.00 | 68 | 1019.1 |
| 20260830181516 | 23 | 190 | 17.7 | 25.7 | 0.00 | 0.00 | 0.00 | 68 | 1019.1 |
| 20260830181023 | 23 | 337 | 19.3 | 29.0 | 0.00 | 0.00 | 0.00 | 68 | 1019.2 |
| 20260830180512 | 23 | 190 | 16.1 | 29.0 | 0.00 | 0.00 | 0.00 | 68 | 1019.1 |
| 20260830180028 | 24 | 190 | 16.1 | 25.7 | 0.00 | 0.00 | 0.00 | 68 | 1019.1 |
| 20260830175529 | 24 | 190 | 19.3 | 27.4 | 0.00 | 0.00 | 0.00 | 67 | 1019.1 |
| 20260830175029 | 24 | 190 | 14.5 | 29.0 | 0.00 | 0.00 | 0.00 | 67 | 1019.1 |
| 20260830174515 | 24 | 190 | 19.3 | 32.2 | 0.00 | 0.00 | 0.00 | 67 | 1019.0 |
| 20260830174126 | 24 | 190 | 19.3 | 32.2 | 0.00 | 0.00 | 0.00 | 67 | 1019.0 |
| 20260830173548 | 24 | 349 | 22.5 | 29.0 | 0.00 | 0.00 | 0.00 | 66 | 1019.0 |
| 20260830173016 | 24 | 326 | 17.7 | 30.6 | 0.00 | 0.00 | 0.00 | 66 | 1018.9 |
| 20260830172551 | 24 | 328 | 20.9 | 32.2 | 0.00 | 0.00 | 0.00 | 66 | 1018.9 |
| 20260830172018 | 25 | 330 | 24.1 | 32.2 | 0.00 | 0.00 | 0.00 | 66 | 1019.0 |
| 20260830171526 | 25 | 190 | 24.1 | 32.2 | 0.00 | 0.00 | 0.00 | 65 | 1018.9 |
| 20260830171027 | 25 | 336 | 19.3 | 32.2 | 0.00 | 0.00 | 0.00 | 64 | 1018.9 |
| 20260830170514 | 25 | 331 | 20.9 | 32.2 | 0.00 | 0.00 | 0.00 | 64 | 1018.9 |
| 20260830170042 | 25 | 6 | 16.1 | 32.2 | 0.00 | 0.00 | 0.00 | 63 | 1018.9 |
| 20260830165522 | 25 | 316 | 22.5 | 32.2 | 0.00 | 0.00 | 0.00 | 63 | 1018.9 |
| 20260830165026 | 25 | 292 | 9.7 | 29.0 | 0.00 | 0.00 | 0.00 | 63 | 1018.8 |
| 20260830164017 | 25 | 337 | 17.7 | 29.0 | 0.00 | 0.00 | 0.00 | 63 | 1018.8 |
| 20260830163513 | 25 | 330 | 19.3 | 33.8 | 0.00 | 0.00 | 0.00 | 63 | 1018.8 |
| 20260830163021 | 25 | 323 | 20.9 | 33.8 | 0.00 | 0.00 | 0.00 | 63 | 1018.8 |
| 20260830162522 | 26 | 349 | 19.3 | 30.6 | 0.00 | 0.00 | 0.00 | 63 | 1018.8 |
| 20260830162029 | 26 | 336 | 17.7 | 29.0 | 0.00 | 0.00 | 0.00 | 63 | 1018.8 |
| 20260830161516 | 26 | 300 | 16.1 | 29.0 | 0.00 | 0.00 | 0.00 | 63 | 1018.8 |
| 20260830161023 | 26 | 311 | 16.1 | 27.4 | 0.00 | 0.00 | 0.00 | 63 | 1018.8 |
| 20260830160512 | 26 | 285 | 17.7 | 25.7 | 0.00 | 0.00 | 0.00 | 64 | 1018.8 |
| 20260830160020 | 26 | 347 | 11.3 | 30.6 | 0.00 | 0.00 | 0.00 | 64 | 1018.8 |
| 20260830155522 | 26 | 313 | 17.7 | 30.6 | 0.00 | 0.00 | 0.00 | 63 | 1018.8 |
| 20260830155027 | 26 | 319 | 17.7 | 27.4 | 0.00 | 0.00 | 0.00 | 63 | 1018.8 |
| 20260830154533 | 26 | 305 | 14.5 | 24.1 | 0.00 | 0.00 | 0.00 | 64 | 1018.8 |
| 20260830154012 | 26 | 348 | 9.7 | 22.5 | 0.00 | 0.00 | 0.00 | 64 | 1018.9 |
| 20260830153520 | 26 | 342 | 11.3 | 25.7 | 0.00 | 0.00 | 0.00 | 63 | 1018.9 |
| 20260830153029 | 26 | 309 | 17.7 | 25.7 | 0.00 | 0.00 | 0.00 | 62 | 1018.8 |
| 20260830152530 | 27 | 3 | 16.1 | 24.1 | 0.00 | 0.00 | 0.00 | 62 | 1018.9 |
| 20260830152017 | 27 | 12 | 11.3 | 24.1 | 0.00 | 0.00 | 0.00 | 62 | 1018.9 |
| 20260830151511 | 26 | 348 | 12.9 | 24.1 | 0.00 | 0.00 | 0.00 | 61 | 1018.9 |
| 20260830151018 | 27 | 355 | 16.1 | 24.1 | 0.00 | 0.00 | 0.00 | 60 | 1019.0 |